This is the latest recevied weather packets stored in our database for station/object SP9TWP-3. If no packets are shown the sender has not sent any weather packets the latest 10 day(s).
| Time | Temp. | Humidity | Pressure | Rain* | Wind** | Luminosity | Snow |
|---|---|---|---|---|---|---|---|
| 1777470325 | 11.11° C | 25% | 1025 hPa | - | - | - | - |
| 1777469424 | 12.22° C | 25% | 1025 hPa | - | - | - | - |
| 1777468524 | 9.44° C | 27% | 1024.9 hPa | - | - | - | - |
| 1777467624 | 11.11° C | 24% | 1024.8 hPa | - | - | - | - |
| 1777466724 | 11.11° C | 22% | 1025 hPa | - | - | - | - |
| 1777465824 | 11.11° C | 21% | 1024.6 hPa | - | - | - | - |
| 1777464924 | 10.56° C | 22% | 1024.8 hPa | - | - | - | - |
| 1777464023 | 11.11° C | 23% | 1024.8 hPa | - | - | - | - |
| 1777463123 | 10.56° C | 21% | 1024.7 hPa | - | - | - | - |
| 1777462223 | 10.56° C | 21% | 1024.8 hPa | - | - | - | - |
| 1777461323 | 10° C | 24% | 1024.8 hPa | - | - | - | - |
| 1777460423 | 10° C | 24% | 1024.8 hPa | - | - | - | - |
| 1777459523 | 10° C | 25% | 1024.8 hPa | - | - | - | - |
| 1777458622 | 9.44° C | 26% | 1024.8 hPa | - | - | - | - |
| 1777457722 | 8.89° C | 30% | 1024.8 hPa | - | - | - | - |
| 1777456822 | 9.44° C | 31% | 1024.8 hPa | - | - | - | - |
| 1777455922 | 10° C | 32% | 1024.8 hPa | - | - | - | - |
| 1777455022 | 9.44° C | 34% | 1024.8 hPa | - | - | - | - |
| 1777454122 | 8.89° C | 33% | 1024.8 hPa | - | - | - | - |
| 1777453222 | 8.33° C | 34% | 1024.7 hPa | - | - | - | - |
| 1777452321 | 7.78° C | 37% | 1024.8 hPa | - | - | - | - |
| 1777451421 | 7.78° C | 37% | 1024.7 hPa | - | - | - | - |
| 1777450521 | 6.67° C | 38% | 1024.8 hPa | - | - | - | - |
| 1777449621 | 7.22° C | 38% | 1024.6 hPa | - | - | - | - |
| 1777448721 | 6.67° C | 38% | 1024.5 hPa | - | - | - | - |
* Rain since midnight (hover to see other rain measurements)
** Current wind speed in m/s (hover to see current wind gust speed)